When you browse on this site, cookies collect data to enhance your experience and personalize the content and advertising you see.
Visit our Privacy Policy to learn more. By continuing to use the site, you agree to this use of cookies and data.
  • In Austria
  • List of Countries
  • For 7 days
  • Water Temperature
  • Weather Map
  • News
  • Weather Widgets
  • user-avatar
    Login

    Hourly Weather Zatyshne

    Today, 23 August, Friday

    Time Temperature Precipitation Wind Pressure Humidity
    00:00 +26°C° 0 mm 5 mps 752 mmHg 63%
    01:00 +25°C° 0 mm 5 mps 752 mmHg 63%
    02:00 +25°C° 0 mm 5 mps 752 mmHg 64%
    03:00 +23°C° 0 mm 5 mps 752 mmHg 66%
    04:00 +22°C° 0 mm 5 mps 752 mmHg 68%
    05:00 +22°C° 0 mm 5 mps 752 mmHg 70%
    06:00 +23°C° 0 mm 5 mps 752 mmHg 66%
    07:00 +25°C° 0 mm 5 mps 753 mmHg 62%
    08:00 +27°C° 0 mm 5 mps 753 mmHg 57%
    09:00 +28°C° 0 mm 5 mps 753 mmHg 51%
    10:00 +30°C° 0 mm 5 mps 753 mmHg 46%
    11:00 +33°C° 0 mm 5 mps 753 mmHg 40%
    12:00 +33°C° 0 mm 5 mps 752 mmHg 38%
    13:00 +34°C° 0 mm 5 mps 752 mmHg 35%
    14:00 +35°C° 0 mm 5 mps 752 mmHg 33%
    15:00 +34°C° 0 mm 5 mps 752 mmHg 35%
    16:00 +33°C° 0 mm 6 mps 752 mmHg 37%
    17:00 +33°C° 0 mm 6 mps 752 mmHg 40%
    18:00 +30°C° 0 mm 5 mps 752 mmHg 44%
    19:00 +29°C° 0 mm 5 mps 752 mmHg 49%
    20:00 +27°C° 0 mm 4 mps 753 mmHg 54%
    21:00 +26°C° 0 mm 4 mps 753 mmHg 60%
    22:00 +25°C° 0 mm 4 mps 753 mmHg 65%
    23:00 +24°C° 0 mm 3 mps 753 mmHg 71%

    Tomorrow, 24 August, Saturday

    Time Temperature Precipitation Wind Pressure Humidity
    00:00 +22°C° 0 mm 4 mps 753 mmHg 74%
    01:00 +22°C° 0 mm 4 mps 753 mmHg 78%
    02:00 +21°C° 0 mm 4 mps 753 mmHg 82%
    03:00 +21°C° 0 mm 4 mps 753 mmHg 85%
    04:00 +20°C° 0 mm 4 mps 753 mmHg 88%
    05:00 +20°C° 0 mm 4 mps 753 mmHg 91%
    06:00 +21°C° 0 mm 4 mps 753 mmHg 84%
    07:00 +23°C° 0 mm 5 mps 753 mmHg 78%
    08:00 +25°C° 0 mm 5 mps 753 mmHg 71%
    09:00 +27°C° 0 mm 5 mps 753 mmHg 63%
    10:00 +29°C° 0 mm 5 mps 753 mmHg 55%
    11:00 +32°C° 0 mm 5 mps 753 mmHg 46%
    12:00 +32°C° 0 mm 5 mps 753 mmHg 43%
    13:00 +33°C° 0 mm 5 mps 752 mmHg 40%
    14:00 +34°C° 0 mm 5 mps 752 mmHg 36%
    15:00 +34°C° 0 mm 5 mps 752 mmHg 37%
    16:00 +33°C° 0 mm 5 mps 752 mmHg 39%
    17:00 +33°C° 0 mm 5 mps 752 mmHg 40%
    18:00 +30°C° 0 mm 5 mps 752 mmHg 45%
    19:00 +28°C° 0 mm 4 mps 752 mmHg 50%
    20:00 +27°C° 0 mm 4 mps 753 mmHg 55%
    21:00 +26°C° 0 mm 4 mps 753 mmHg 59%
    22:00 +25°C° 0 mm 4 mps 753 mmHg 62%
    23:00 +23°C° 0 mm 4 mps 753 mmHg 65%

    Day after tomorrow, 25 August, Sunday

    Time Temperature Precipitation Wind Pressure Humidity
    00:00 +22°C° 0 mm 4 mps 753 mmHg 68%
    01:00 +22°C° 0 mm 4 mps 753 mmHg 71%
    02:00 +21°C° 0 mm 4 mps 753 mmHg 74%
    03:00 +20°C° 0 mm 4 mps 753 mmHg 74%
    04:00 +20°C° 0 mm 4 mps 753 mmHg 75%
    05:00 +19°C° 0 mm 4 mps 753 mmHg 75%
    06:00 +21°C° 0 mm 4 mps 753 mmHg 68%
    07:00 +22°C° 0 mm 5 mps 753 mmHg 62%
    08:00 +25°C° 0 mm 5 mps 753 mmHg 55%
    09:00 +26°C° 0 mm 5 mps 753 mmHg 50%
    10:00 +28°C° 0 mm 5 mps 753 mmHg 46%
    11:00 +30°C° 0 mm 6 mps 753 mmHg 41%
    12:00 +30°C° 0 mm 5 mps 753 mmHg 37%
    13:00 +32°C° 0 mm 5 mps 753 mmHg 34%
    14:00 +32°C° 0 mm 5 mps 752 mmHg 30%
    15:00 +32°C° 0 mm 5 mps 752 mmHg 31%
    16:00 +30°C° 0 mm 5 mps 752 mmHg 31%
    17:00 +30°C° 0 mm 5 mps 752 mmHg 32%
    18:00 +28°C° 0 mm 5 mps 752 mmHg 34%
    19:00 +26°C° 0 mm 4 mps 752 mmHg 36%
    20:00 +23°C° 0 mm 4 mps 753 mmHg 38%
    21:00 +22°C° 0 mm 4 mps 753 mmHg 41%
    22:00 +22°C° 0 mm 4 mps 753 mmHg 45%
    23:00 +21°C° 0 mm 4 mps 753 mmHg 48%

    26 August, Monday

    Time Temperature Precipitation Wind Pressure Humidity
    00:00 +20°C° 0 mm 4 mps 753 mmHg 52%
    01:00 +19°C° 0 mm 4 mps 753 mmHg 56%
    02:00 +19°C° 0 mm 4 mps 753 mmHg 61%
    03:00 +18°C° 0 mm 4 mps 753 mmHg 64%
    04:00 +18°C° 0 mm 4 mps 753 mmHg 67%
    05:00 +17°C° 0 mm 4 mps 753 mmHg 70%
    06:00 +19°C° 0 mm 4 mps 753 mmHg 64%
    07:00 +21°C° 0 mm 5 mps 753 mmHg 57%
    08:00 +23°C° 0 mm 5 mps 754 mmHg 51%
    09:00 +26°C° 0 mm 5 mps 754 mmHg 46%
    10:00 +28°C° 0 mm 5 mps 754 mmHg 40%
    11:00 +29°C° 0 mm 5 mps 754 mmHg 35%
    12:00 +30°C° 0 mm 5 mps 754 mmHg 33%
    13:00 +32°C° 0 mm 5 mps 753 mmHg 32%
    14:00 +32°C° 0 mm 4 mps 753 mmHg 30%
    15:00 +32°C° 0 mm 4 mps 753 mmHg 31%
    16:00 +32°C° 0 mm 4 mps 753 mmHg 33%
    17:00 +30°C° 0 mm 4 mps 752 mmHg 35%
    18:00 +28°C° 0 mm 4 mps 752 mmHg 41%
    19:00 +26°C° 0 mm 4 mps 752 mmHg 47%
    20:00 +23°C° 0 mm 4 mps 753 mmHg 54%
    21:00 +22°C° 0 mm 4 mps 753 mmHg 56%
    22:00 +22°C° 0 mm 3 mps 753 mmHg 59%
    23:00 +21°C° 0 mm 3 mps 753 mmHg 62%

    27 August, Tuesday

    Time Temperature Precipitation Wind Pressure Humidity
    00:00 +20°C° 0 mm 3 mps 753 mmHg 62%
    01:00 +20°C° 0 mm 3 mps 753 mmHg 62%
    02:00 +19°C° 0 mm 2 mps 753 mmHg 63%
    03:00 +18°C° 0 mm 2 mps 753 mmHg 62%
    04:00 +18°C° 0 mm 2 mps 753 mmHg 61%
    05:00 +18°C° 0 mm 2 mps 753 mmHg 60%
    06:00 +19°C° 0 mm 2 mps 753 mmHg 54%
    07:00 +21°C° 0 mm 2 mps 753 mmHg 48%
    08:00 +24°C° 0 mm 3 mps 753 mmHg 42%
    09:00 +26°C° 0 mm 3 mps 753 mmHg 39%
    10:00 +27°C° 0 mm 3 mps 752 mmHg 35%
    11:00 +29°C° 0 mm 3 mps 752 mmHg 31%
    12:00 +29°C° 0 mm 3 mps 752 mmHg 30%
    13:00 +30°C° 0 mm 3 mps 752 mmHg 28%
    14:00 +30°C° 0 mm 3 mps 751 mmHg 27%
    15:00 +30°C° 0 mm 3 mps 751 mmHg 28%
    16:00 +30°C° 0 mm 4 mps 751 mmHg 29%
    17:00 +29°C° 0 mm 4 mps 751 mmHg 29%
    18:00 +27°C° 0 mm 4 mps 751 mmHg 33%
    19:00 +26°C° 0 mm 4 mps 751 mmHg 37%
    20:00 +23°C° 0 mm 5 mps 751 mmHg 41%
    21:00 +22°C° 0 mm 4 mps 751 mmHg 45%
    22:00 +21°C° 0 mm 4 mps 751 mmHg 49%
    23:00 +20°C° 0 mm 3 mps 752 mmHg 54%

    28 August, Wednesday

    Time Temperature Precipitation Wind Pressure Humidity
    00:00 +19°C° 0 mm 3 mps 752 mmHg 57%
    01:00 +19°C° 0 mm 3 mps 751 mmHg 60%
    02:00 +18°C° 0 mm 3 mps 751 mmHg 63%
    03:00 +18°C° 0 mm 3 mps 751 mmHg 66%
    04:00 +17°C° 0 mm 3 mps 751 mmHg 69%
    05:00 +17°C° 0 mm 3 mps 751 mmHg 72%
    06:00 +19°C° 0 mm 3 mps 752 mmHg 67%
    07:00 +21°C° 0 mm 4 mps 752 mmHg 63%
    08:00 +22°C° 0 mm 4 mps 752 mmHg 58%
    09:00 +25°C° 0 mm 5 mps 752 mmHg 52%
    10:00 +26°C° 0 mm 5 mps 752 mmHg 46%
    11:00 +28°C° 0 mm 5 mps 752 mmHg 40%
    12:00 +28°C° 0 mm 6 mps 751 mmHg 37%
    13:00 +28°C° 0 mm 6 mps 751 mmHg 34%
    14:00 +29°C° 0 mm 6 mps 751 mmHg 31%
    15:00 +28°C° 0 mm 6 mps 751 mmHg 31%
    16:00 +27°C° 0 mm 6 mps 751 mmHg 30%
    17:00 +27°C° 0 mm 6 mps 751 mmHg 30%
    18:00 +25°C° 0 mm 5 mps 751 mmHg 36%
    19:00 +22°C° 0 mm 5 mps 751 mmHg 41%
    20:00 +20°C° 0 mm 4 mps 752 mmHg 46%
    21:00 +19°C° 0 mm 4 mps 752 mmHg 49%
    22:00 +18°C° 0 mm 4 mps 752 mmHg 52%
    23:00 +17°C° 0 mm 4 mps 752 mmHg 55%
    Show more